sat.trackr.live / text

‹ back to catalog

UNKNOWN

NORAD 89304

UNKNOWN UNKNOWN UNKNOWN

§ Identity

Operator
Country
Launch date
Launch site
Launch vehicle
Mass (kg)
RCS (m²)

External: N2YO · Heavens-Above

§ Orbital elements

Epoch: 2026-05-23T06:27:01.315008Z

Period
157.36 min
Inclination
84.1749°
Eccentricity
0.2878639
Mean motion
9.15082596 rev/d
Perigee alt
497.7 km
Apogee alt
6,056.5 km
Semi-major
9,655.2 km
B*
3.1530e-2
RAAN
59.7193°
Arg perigee
134.5689°
Mean anomaly
357.6877°
Rev number
45,309

§ Raw data

UNKNOWN1 89304U          26143.26876522  .00050991  00000+0  31530-1 0  99942 89304  84.1749  59.7193 2878639 134.5689 357.6877  9.15082596453091

JSON: /api/v1/satellites/89304 · /tle

For live sub-satellite position, see the globe view (requires WebGL).

§ Visibility from observer

Set your observer location to see the next 7 days of passes ≥ 10°. The values pass through the URL so the page stays shareable.

No JS? Fill the form by hand. The geolocation button needs JavaScript.